This demonstration page uses our WeatherBlox Daily Observations layout. Learn more.

Left ArrowRight Arrow

Hourly Observations for September 23, 2019

Temp ( °F °C ) Dew Point ( °F °C ) Humidity (%) Winds ( mph kmh ) Pressure ( in mb ) Visibility ( mi km ) Precip ( " mm )
12:54 am 00:54 Clear 56 13.3 53 11.7 90 90 S 3 6 30.02 1017 10 16 0.00 0.00
1:54 am 01:54 Clear 54 12.2 52 11.1 93 93 Calm 30.03 1017 10 16 0.00 0.00
2:54 am 02:54 Clear 57 13.9 54 12.2 90 90 SSW 3 6 30.03 1017 10 16 0.00 0.00
3:54 am 03:54 Clear 53 11.7 50 10 89 89 NNW 3 6 30.03 1017 10 16 0.00 0.00
4:54 am 04:54 Clear 53 11.7 52 11.1 96 96 Calm 30.04 1017 10 16 0.00 0.00
5:54 am 05:54 Clear 54 12.2 52 11.1 93 93 SSE 3 6 30.04 1017 10 16 0.00 0.00
6:54 am 06:54 Clear 53 11.7 51 10.6 93 93 S 7 11 30.05 1018 10 16 0.00 0.00
7:54 am 07:54 Sunny 55 12.8 53 11.7 93 93 SSE 3 6 30.06 1018 10 16 0.00 0.00
8:54 am 08:54 Sunny 61 16.1 56 13.3 84 84 S 5 7 30.08 1019 10 16 0.00 0.00
9:54 am 09:54 Sunny 66 18.9 58 14.4 75 75 undefined N/A 30.08 1019 10 16 0.00 0.00
10:54 am 10:54 Sunny 73 22.8 56 13.3 55 55 WSW 8 13 30.07 1018 10 16 0.00 0.00
11:54 am 11:54 Sunny 78 25.6 57 13.9 48 48 SSW 9 15 30.06 1018 10 16 0.00 0.00
12:54 pm 12:54 Sunny 81 27.2 56 13.3 42 42 WSW 10 17 30.04 1017 10 16 0.00 0.00
1:54 pm 13:54 Sunny 82 27.8 56 13.3 41 41 S 10 17 30.01 1016 10 16 0.00 0.00
2:54 pm 14:54 Sunny 84 28.9 54 12.2 36 36 SW 13 20 29.99 1016 10 16 0.00 0.00
3:54 pm 15:54 Sunny 83 28.3 53 11.7 36 36 S 12 19 29.98 1015 10 16 0.00 0.00
4:54 pm 16:54 Sunny 83 28.3 53 11.7 36 36 SSW 16 26 29.97 1015 10 16 0.00 0.00
5:54 pm 17:54 Sunny 81 27.2 53 11.7 38 38 SSW 13 20 29.96 1015 10 16 0.00 0.00
6:54 pm 18:54 Sunny 75 23.9 56 13.3 52 52 S 9 15 29.96 1015 10 16 0.00 0.00
7:54 pm 19:54 Clear 69 20.6 57 13.9 66 66 S 7 11 29.96 1015 10 16 0.00 0.00
8:54 pm 20:54 Clear 68 20 58 14.4 70 70 S 7 11 29.96 1015 10 16 0.00 0.00
9:54 pm 21:54 Clear 65 18.3 58 14.4 78 78 S 8 13 29.96 1015 10 16 0.00 0.00
10:54 pm 22:54 Clear 65 18.3 57 13.9 76 76 S 7 11 29.96 1014 10 16 0.00 0.00
11:54 pm 23:54 Clear 66 18.9 56 13.3 70 70 S 8 13 29.93 1014 10 16 0.00 0.00

Powered by AerisWeather